Weather in Albuquerque

United States     35°05′03″N   106°38′55″W
temp.,
°C
wind,
m/s
gust,
m/s
humid.,
%
clouds,
%
prec.,
mm/h
press.,
hPa
HPBL,
m
25 may, wed
wed2500:00+13nnw35160 0.0 1010168
03:00+7sse11670 0.0 101442
06:00+5ne11740 0.0 101544
09:00+14n34355 0.0 1015682
12:00+20nne361452 0.0 10122112
15:00+25nnw81084 0.0 10082772
18:00+25nw1111110 0.0 10072662
21:00+19nnw46180 0.0 1009158
26 may, thu
thu2600:00+16w23230 0.0 101151
03:00+14nw33260 0.0 101241
06:00+12nnw33330 0.0 101644
09:00+19nne33230 0.0 1016435
12:00+26nne14140 0.0 10131610
15:00+31s4595 0.0 10093555
18:00+32se16739 0.0 10063820
21:00+25s441299 0.0 100948
27 may, fri
fri2700:00+20sw332062 0.0 101139
03:00+19sw332211 0.0 101231
06:00+16ssw22255 0.0 101416
09:00+23sse22160 0.0 1014556
12:00+29ne15110 0.0 10112539
15:00+34w697100 0.0 10066042
18:00+26wnw91019100 0.0 1009666
21:00+23sse2321100 0.0 100727
28 may, sat
sat2800:00+18sse222884 0.0 100931
03:00+17s332742 0.0 101024
06:00+15s23242 0.0 101023
09:00+22wsw341692 0.0 1009507
12:00+29s4119100 0.0 10053433
15:00+34wsw1213477 0.0 9994975
18:00+32sw1213498 0.0 9974793
21:00+23wsw5795 0.0 1001129
29 may, sun
sun2900:00+17sw24120 0.0 100492
03:00+14s22155 0.0 100333
06:00+13s22154 0.0 100437
09:00+20s35121 0.0 1003669
12:00+28sw1013103 0.0 9983277
15:00+31sw13151098 0.0 9934161
18:00+29sw14151477 0.0 9934014
21:00+23sw1016210 0.0 997503